Simultaneous Nadir Overpasses (SNOs) Predictions

Prediction of SNOs over PacNW region [( 10.00, 139.50) to ( 22.70, 165.60)] between AQUA and NPP Satellites:

Table of predicted SNOs over PacNW region for the next 30.0 days since TLE Epoch: 12/28/2013
Index Date (AQUA) Time (AQUA) AQUA Lat,Lon Date (NPP) Time (NPP) NPP Lat,Lon Distance(km) Time Diff (sec)
1 12/31/2013 15:59:55 22.61, 147.39 12/31/2013 16:03:24 26.21, 145.30 451.78 209
2 01/03/2014 02:42:52 22.70, 159.77 01/03/2014 02:39:22 23.70, 158.12 202.22 210
3 01/08/2014 15:10:23 22.61, 159.78 01/08/2014 15:13:40 23.20, 157.21 270.95 197
4 01/11/2014 03:31:01 18.46, 148.44 01/11/2014 03:28:41 18.10, 146.82 175.77 140
5 01/19/2014 02:42:18 21.83, 160.08 01/19/2014 02:39:03 21.50, 158.68 149.54 195
6 01/24/2014 15:09:58 22.59, 159.90 01/24/2014 15:13:26 25.12, 157.71 358.71 208
